User: anonymous   Login
Location: NJAA Observatory
(40.6819°N, 74.8979°W)
Time: 10:17:33
(UTC-04:00)
Language:

Cosmos 1461 - Orbit

View from above orbital plane
View from above orbital plane
View from above satellite
View from above satellite

Ground track
Ground track

The orbit data is extracted from the following two-line orbital elements,

1 14064U 83044A   14303.71772903  .00004641  00000-0  46282-3 0  6752
2 14064 065.0063 010.3745 0094740 059.8530 301.1929 14.89419824580032
Epoch (UTC): 30 October 2014 17:13:31
Eccentricity: 0.0094740
inclination: 65.0063°
perigee height: 533 km
apogee height: 666 km
right ascension of ascending node: 10.3745°
argument of perigee: 59.8530°
revolutions per day: 14.89419824
mean anomaly at epoch: 301.1929°
orbit number at epoch: 58003

The dashed part of the orbit path shows where the satellite is in the earth's shadow,  

DLR